Find Starlink 31007

NORAD ID: 58889 Int'l Des: 2024-020 Owner: SPXS Country: US Constellation: starlink operational
LEOCIRCULAR

リアルタイム位置

3D地球を読み込み中...

Starlink 31007について

説明を読み込み中...

次回通過

Passes for default location (London). Set your location on the main map for personalized predictions.

高度履歴

Loading altitude history...

軌道要素

1 58889U 24020P 26120.11319087 .00001068 00000-0 48192-4 0 9990
2 58889 53.1604 83.6061 0001194 79.6380 280.4755 15.30194872125943
Epoch: Apr 30, 2026 • Age: 12 hours

現在のステータス

高度 477.6 km
速度 7.63 km/s
衛星直下点 -7.15°S, 169.53°W
打ち上げ日 Jan 29, 2024
運用期間 2.2 years
タイプ internet

技術仕様

分類 Payload
質量 730.00 kg
乾燥質量 700.00 kg
総質量 730.00 kg
長さ 0.30 m
直径 4.10 m
スパン 29.00 m
形状 Box + pan
製造者 SPXS
バスタイプ Starlink V2M
フェーズステータス In Orbit
所有者/国 SPXS/US

Most Searched